User: anonymous   Login
Location: Okie-Tex Star Party
(36.8978°N, 102.9520°W)
Time: 06:46:00
(UTC-05:00)
Language:

Hamsat - Orbit

View from above orbital plane
View from above orbital plane
View from above satellite
View from above satellite

Ground track
Ground track

The orbit data is extracted from the following two-line orbital elements,

1 28650U 05017B   16177.87242045  .00000336  00000-0  41909-4 0  9997
2 28650  97.6082 159.3640 0022434 228.1271 131.8032 14.88308586603166
Epoch (UTC): 25 June 2016 20:56:17
Eccentricity: 0.0022434
inclination: 97.6082°
perigee height: 587 km
apogee height: 619 km
right ascension of ascending node: 159.3640°
argument of perigee: 228.1271°
revolutions per day: 14.88308586
mean anomaly at epoch: 131.8032°
orbit number at epoch: 60316

The dashed part of the orbit path shows where the satellite is in the earth's shadow,  

DLR